Погода в Новом Свете

Украина / Донецкая область     47°48′23″N   38°01′16″E
темп.,
°C
ветер,
м/с
пор.,
м/с
влажн.,
%
обл.,
%
осадки,
мм/ч
давл.,
гПа
погр.,
м
21 апреля, ср
ср2100:00+9ююз61288100 0.0 1006726
03:00+9зюз71390100 0.1 1008674
06:00+8зюз61289100 0.0 1011599
09:00+12зюз696451 0.0 10141011
12:00+15зюз6948100 0.0 10152119
15:00+15юз5848100 0.0 10152043
18:00+14юз585991 0.4 1017817
21:00+9ююз388426 1.3 1019209
22 апреля, чт
чт2200:00+8ююз36897 0.5 1020131
03:00+7ююз22915 0.6 102038
06:00+7ююз22925 0.0 102124
09:00+12юз23675 0.0 1022621
12:00+16ююз444953 0.2 10221838
15:00+16юз4445100 0.3 10211715
18:00+14юз3661100 0.0 1021336
21:00+12юз356964 0.0 1022122
23 апреля, пт
пт2300:00+9юз347813 0.0 102250
03:00+8юз22837 0.0 102222
06:00+7ююз11855 0.0 102211
09:00+13ююз34645 0.0 1022532
12:00+16ююз565214 0.4 10211668
15:00+15ююз6858100 0.7 1019745
18:00+14ююз565811 0.0 1018776
21:00+10ююз3877100 0.0 1018174
24 апреля, сб
сб2400:00+10ююз3877100 0.0 1017266
03:00+9ююз4107539 0.0 1016313
06:00+8юз4128821 0.0 1015381
09:00+11з71078100 0.4 10151338
12:00+11зсз68575 0.8 10171429
15:00+14з683637 0.8 10162569
18:00+12зюз78440 0.0 10161075
21:00+7зсз4867100 0.0 1019229
25 апреля, вс
вс2500:00+6з377353 0.0 1019136
03:00+4з396874 0.0 1019223
06:00+4з3674100 0.0 1020224
09:00+8зсз565199 0.0 10201107
12:00+10зсз5638100 0.0 10191818
15:00+12з5634100 0.0 10182299
18:00+11з4541100 0.0 10181205
21:00+7з3550100 0.0 101970